Flag for United Kingdom Weather past 2 weeks in Guildford, England, United Kingdom

Now
54 °F

Scattered showers. Scattered clouds.


Feels Like: 48 °F
Forecast: 47 / 60 °F
Wind: 24 mph from Southwest

Location: Farnborough Airport

Current Time: May 6, 2015 at 4:39:06 PM

Latest Report: May 6, 2015 at 4:20 PM


Visibility: N/A

Pressure: 29.68 "Hg

Humidity: 82%

Dew point: 48 °F

Location of GuildfordLocation

Historic Weather in Guildford — Graph

°F

Guildford temperature yesterday

Maximum temperature yesterday: 57 °F (at 6:50 AM)
Minimum temperature yesterday: 52 °F (at 7:50 PM)
Average temperature yesterday: 55 °F

Past Weeks' High & Low Weather Summary

 TemperatureHumidityPressure
High66 °F (May 3, 1:50 PM)100% (Apr 22, 6:50 AM)30.51 "Hg (Apr 22, 6:50 AM)
Low32 °F (Apr 27, 6:50 AM)31% (Apr 30, 3:50 PM)29.18 "Hg (May 5, 6:50 AM)
Average53 °F66%29.84 "Hg
* Reported Apr 21 3:20 PM — May 6 3:20 PM, Guildford, Weather by CustomWeather, © 2015

Note: Actual official high and low records may vary slightly from our data, if they occured in-between our weather recording intervals... More about our weather records

Advertising

Guildford weather history for previous 24 hours

 ConditionsComfort  
Time TempWeatherWind HumidityBarometerVisibility
3:20 PM
Wed, May 6
55 °FScattered showers. Scattered clouds.24 mph77%29.68 "HgN/A
2:50 PM54 °FScattered showers. Partly sunny.20 mph82%29.65 "HgN/A
2:20 PM48 °FSleet. Partly sunny.15 mph87%29.65 "HgN/A
1:50 PM52 °FLots of rain. Partly sunny.22 mph82%29.62 "Hg2 mi
1:20 PM54 °FScattered showers. Partly sunny.22 mph82%29.62 "HgN/A
12:50 PM54 °FScattered showers. Partly sunny.20 mph77%29.62 "HgN/A
12:20 PM54 °FScattered showers. Partly sunny.23 mph77%29.62 "HgN/A
11:50 AM54 °FScattered showers. Partly sunny.22 mph72%29.59 "HgN/A
11:20 AM54 °FScattered showers. Partly sunny.25 mph67%29.59 "HgN/A
10:50 AM55 °FScattered showers. Partly sunny.23 mph67%29.59 "HgN/A
10:20 AM52 °FScattered showers. Partly sunny.17 mph82%29.59 "HgN/A
9:50 AM54 °FSprinkles. Partly sunny.21 mph77%29.59 "HgN/A
9:20 AM52 °FScattered showers. Partly sunny.18 mph77%29.59 "HgN/A
8:50 AM52 °FScattered showers. Scattered clouds.17 mph77%29.59 "HgN/A
8:20 AM50 °FScattered clouds.17 mph88%30.18 "HgN/A
7:50 AM50 °FPassing clouds.15 mph82%29.59 "HgN/A
7:20 AM48 °FScattered clouds.15 mph87%29.59 "HgN/A
6:50 AM48 °FRain showers. Partly sunny.15 mph87%29.59 "Hg5 mi
8:50 PM
Tue, May 5
52 °FScattered showers. Scattered clouds.25 mph77%29.56 "HgN/A
8:20 PM54 °FScattered showers. Scattered clouds.26 mph72%29.56 "HgN/A
7:50 PM52 °FScattered showers. Scattered clouds.25 mph77%29.56 "HgN/A
7:20 PM54 °FScattered showers. Scattered clouds.29 mph72%29.56 "HgN/A
6:50 PM54 °FScattered showers. Scattered clouds.26 mph72%29.53 "HgN/A
6:20 PM55 °FScattered showers. Scattered clouds.29 mph67%29.53 "HgN/A
5:50 PM55 °FCool.N/A67%29.53 "HgN/A
5:20 PM55 °FScattered clouds.29 mph67%29.53 "HgN/A
4:50 PM55 °FScattered clouds.30 mph63%29.53 "HgN/A
4:20 PM57 °FScattered clouds.35 mph59%29.53 "HgN/A
Weather by CustomWeather, © 2015

See weather overviewHow to use our weather pages